| time (UTC) | temp F | wind direction | speed MPH | gust MPH | rain 1hr in | rain 24hr in | rain mn in | humidity % | barometer mb |
| 20260903120404 | 78 | 240 | 9.0 | 12.0 | 0.00 | 0.00 | 0.00 | ||
| 20260903115905 | 77 | 256 | 9.0 | 9.0 | 0.00 | 0.00 | 0.00 | ||
| 20260903115404 | 76 | 191 | 7.0 | 5.0 | 0.00 | 0.00 | 0.00 | ||
| 20260903113907 | 75 | 266 | 9.0 | 9.0 | 0.00 | 0.00 | 0.00 | ||
| 20260903113409 | 75 | 214 | 8.0 | 9.0 | 0.00 | 0.00 | 0.00 | ||
| 20260903112906 | 75 | 195 | 9.0 | 9.0 | 0.00 | 0.00 | 0.00 | ||
| 20260903112408 | 76 | 212 | 5.0 | 9.0 | 0.00 | 0.00 | 0.00 | ||
| 20260903111909 | 74 | 246 | 10.0 | 6.0 | 0.00 | 0.00 | 0.00 | ||
| 20260903111410 | 74 | 249 | 9.0 | 8.0 | 0.00 | 0.00 | 0.00 | ||
| 20260903110410 | 74 | 231 | 7.0 | 6.0 | 0.00 | 0.00 | 0.00 | ||
| 20260903105911 | 74 | 191 | 3.0 | 14.0 | 0.00 | 0.00 | 0.00 | ||
| 20260903105412 | 73 | 212 | 6.0 | 9.0 | 0.00 | 0.00 | 0.00 | ||
| 20260903104914 | 73 | 224 | 6.0 | 7.0 | 0.00 | 0.00 | 0.00 | ||
| 20260903104415 | 73 | 217 | 7.0 | 8.0 | 0.00 | 0.00 | 0.00 | ||
| 20260903103912 | 73 | 197 | 9.0 | 7.0 | 0.00 | 0.00 | 0.00 | ||
| 20260903103414 | 74 | 297 | 5.0 | 7.0 | 0.00 | 0.00 | 0.00 | ||
| 20260903102915 | 73 | 228 | 6.0 | 2.0 | 0.00 | 0.00 | 0.00 | ||
| 20260903101918 | 72 | 269 | 5.0 | 8.0 | 0.00 | 0.00 | 0.00 | ||
| 20260903101415 | 71 | 253 | 7.0 | 7.0 | 0.00 | 0.00 | 0.00 | ||
| 20260903100916 | 71 | 156 | 6.0 | 3.0 | 0.00 | 0.00 | 0.00 | ||
| 20260903100418 | 70 | 219 | 6.0 | 7.0 | 0.00 | 0.00 | 0.00 | ||
| 20260903095919 | 70 | 207 | 5.0 | 3.0 | 0.00 | 0.00 | 0.00 | ||
| 20260903095420 | 70 | 229 | 8.0 | 8.0 | 0.00 | 0.00 | 0.00 | ||
| 20260903094918 | 71 | 226 | 11.0 | 13.0 | 0.00 | 0.00 | 0.00 | ||
| 20260903094419 | 72 | 281 | 6.0 | 7.0 | 0.00 | 0.00 | 0.00 | ||
| 20260903093920 | 71 | 195 | 7.0 | 9.0 | 0.00 | 0.00 | 0.00 | ||
| 20260903093422 | 71 | 217 | 5.0 | 3.0 | 0.00 | 0.00 | 0.00 | ||
| 20260903092923 | 70 | 194 | 7.0 | 4.0 | 0.00 | 0.00 | 0.00 | ||
| 20260903092421 | 70 | 243 | 7.0 | 9.0 | 0.00 | 0.00 | 0.00 | ||
| 20260903091923 | 71 | 240 | 9.0 | 8.0 | 0.00 | 0.00 | 0.00 | ||
| 20260903090925 | 69 | 267 | 5.0 | 3.0 | 0.00 | 0.00 | 0.00 | ||
| 20260903090427 | 70 | 257 | 9.0 | 11.0 | 0.00 | 0.00 | 0.00 | ||
| 20260903085924 | 71 | 280 | 6.0 | 8.0 | 0.00 | 0.00 | 0.00 | ||
| 20260903085425 | 70 | 255 | 6.0 | 7.0 | 0.00 | 0.00 | 0.00 | ||
| 20260903084927 | 70 | 263 | 9.0 | 12.0 | 0.00 | 0.00 | 0.00 | ||
| 20260903084428 | 70 | 252 | 10.0 | 7.0 | 0.00 | 0.00 | 0.00 | ||
| 20260903083929 | 69 | 240 | 6.0 | 8.0 | 0.00 | 0.00 | 0.00 | ||
| 20260903083428 | 70 | 240 | 7.0 | 5.0 | 0.00 | 0.00 | 0.00 | ||
| 20260903082929 | 69 | 224 | 9.0 | 7.0 | 0.00 | 0.00 | 0.00 | ||
| 20260903082430 | 69 | 236 | 7.0 | 7.0 | 0.00 | 0.00 | 0.00 | ||
| 20260903081433 | 68 | 257 | 8.0 | 6.0 | 0.00 | 0.00 | 0.00 | ||
| 20260903080931 | 68 | 238 | 7.0 | 8.0 | 0.00 | 0.00 | 0.00 | ||
| 20260903080432 | 68 | 204 | 8.0 | 8.0 | 0.00 | 0.00 | 0.00 | ||
| 20260903075933 | 68 | 246 | 4.0 | 3.0 | 0.00 | 0.00 | 0.00 | ||
| 20260903075435 | 71 | 214 | 6.0 | 6.0 | 0.00 | 0.00 | 0.00 | ||
| 20260903074936 | 69 | 181 | 3.0 | 6.0 | 0.00 | 0.00 | 0.00 | ||
| 20260903074434 | 68 | 217 | 4.0 | 6.0 | 0.00 | 0.00 | 0.00 | ||
| 20260903073436 | 66 | 176 | 4.0 | 3.0 | 0.00 | 0.00 | 0.00 | ||
| 20260903072938 | 65 | 191 | 5.0 | 3.0 | 0.00 | 0.00 | 0.00 | ||
| 20260903072439 | 64 | 276 | 3.0 | 2.0 | 0.00 | 0.00 | 0.00 | ||
| 20260903071936 | 64 | 159 | 3.0 | 0.0 | 0.00 | 0.00 | 0.00 | ||
| 20260903071438 | 64 | 181 | 1.0 | 1.0 | 0.00 | 0.00 | 0.00 | ||
| 20260903065942 | 62 | 210 | 3.0 | 4.0 | 0.00 | 0.00 | 0.00 | ||
| 20260903063945 | 60 | 218 | 3.0 | 3.0 | 0.00 | 0.00 | 0.00 | ||
| 20260903063446 | 60 | 219 | 4.0 | 3.0 | 0.00 | 0.00 | 0.00 | ||
| 20260903062944 | 60 | 184 | 4.0 | 2.0 | 0.00 | 0.00 | 0.00 | ||
| 20260903062445 | 59 | 177 | 3.0 | 2.0 | 0.00 | 0.00 | 0.00 | ||
| 20260903061946 | 59 | 174 | 2.0 | 3.0 | 0.00 | 0.00 | 0.00 | ||
| 20260903061448 | 58 | 191 | 2.0 | 3.0 | 0.00 | 0.00 | 0.00 | ||
| 20260903060949 | 58 | 188 | 2.0 | 2.0 | 0.00 | 0.00 | 0.00 | ||
| 20260903060447 | 57 | 153 | 2.0 | 2.0 | 0.00 | 0.00 | 0.00 | ||
| 20260903054949 | 55 | 226 | 4.0 | 5.0 | 0.00 | 0.00 | 0.00 | ||
| 20260903054450 | 54 | 240 | 5.0 | 5.0 | 0.00 | 0.00 | 0.00 | ||
| 20260903053948 | 54 | 221 | 2.0 | 2.0 | 0.00 | 0.00 | 0.00 | ||
| 20260903053449 | 54 | 203 | 2.0 | 2.0 | 0.00 | 0.00 | 0.00 | ||
| 20260903050455 | 54 | 190 | 0.0 | 0.0 | 0.00 | 0.00 | 0.00 | ||
| 20260903045458 | 53 | 152 | 0.0 | 0.0 | 0.00 | 0.00 | 0.00 | ||
| 20260903044956 | 53 | 152 | 0.0 | 0.0 | 0.00 | 0.00 | 0.00 | ||
| 20260903043959 | 55 | 176 | 0.0 | 0.0 | 0.00 | 0.00 | 0.00 | ||
| 20260903042500 | 55 | 176 | 0.0 | 0.0 | 0.00 | 0.00 | 0.00 | ||
| 20260903042001 | 55 | 176 | 0.0 | 0.0 | 0.00 | 0.00 | 0.00 | ||
| 20260903041502 | 55 | 176 | 0.0 | 0.0 | 0.00 | 0.00 | 0.00 | ||
| 20260903040505 | 56 | 176 | 0.0 | 0.0 | 0.00 | 0.00 | 0.00 | ||
| 20260903040003 | 56 | 176 | 0.0 | 0.0 | 0.00 | 0.00 | 0.00 | ||
| 20260903035504 | 56 | 176 | 0.0 | 0.0 | 0.00 | 0.00 | 0.00 | ||
| 20260903035005 | 55 | 176 | 0.0 | 0.0 | 0.00 | 0.00 | 0.00 | ||
| 20260903034507 | 55 | 176 | 0.0 | 0.0 | 0.00 | 0.00 | 0.00 | ||
| 20260903034008 | 53 | 176 | 1.0 | 0.0 | 0.00 | 0.00 | 0.00 | ||
| 20260903033008 | 53 | 215 | 2.0 | 2.0 | 0.00 | 0.00 | 0.00 | ||
| 20260903032011 | 54 | 232 | 3.0 | 3.0 | 0.00 | 0.00 | 0.00 | ||
| 20260903031513 | 55 | 195 | 4.0 | 4.0 | 0.00 | 0.00 | 0.00 | ||
| 20260903031011 | 55 | 228 | 0.0 | 0.0 | 0.00 | 0.00 | 0.00 | ||
| 20260903030513 | 56 | 228 | 0.0 | 0.0 | 0.00 | 0.00 | 0.00 | ||
| 20260903030014 | 56 | 228 | 0.0 | 0.0 | 0.00 | 0.00 | 0.00 | ||
| 20260903025515 | 56 | 228 | 0.0 | 0.0 | 0.00 | 0.00 | 0.00 | ||
| 20260903025017 | 56 | 228 | 0.0 | 0.0 | 0.00 | 0.00 | 0.00 | ||
| 20260903024017 | 55 | 228 | 0.0 | 0.0 | 0.00 | 0.00 | 0.00 | ||
| 20260903023518 | 55 | 228 | 0.0 | 0.0 | 0.00 | 0.00 | 0.00 | ||
| 20260903022521 | 56 | 228 | 0.0 | 0.0 | 0.00 | 0.00 | 0.00 | ||
| 20260903020524 | 58 | 200 | 2.0 | 1.0 | 0.00 | 0.00 | 0.00 | ||
| 20260903020025 | 57 | 188 | 1.0 | 2.0 | 0.00 | 0.00 | 0.00 | ||
| 20260903015523 | 57 | 173 | 1.0 | 1.0 | 0.00 | 0.00 | 0.00 | ||
| 20260903015024 | 55 | 200 | 3.0 | 3.0 | 0.00 | 0.00 | 0.00 | ||
| 20260903014027 | 57 | 114 | 2.0 | 0.0 | 0.00 | 0.00 | 0.00 | ||
| 20260903013528 | 58 | 159 | 1.0 | 2.0 | 0.00 | 0.00 | 0.00 | ||
| 20260903013026 | 58 | 167 | 2.0 | 1.0 | 0.00 | 0.00 | 0.00 | ||
| 20260903012527 | 59 | 190 | 2.0 | 3.0 | 0.00 | 0.00 | 0.00 | ||
| 20260903012028 | 59 | 156 | 0.0 | 1.0 | 0.00 | 0.00 | 0.00 | ||
| 20260903011529 | 59 | 156 | 0.0 | 0.0 | 0.00 | 0.00 | 0.00 | ||
| 20260903011031 | 60 | 156 | 0.0 | 0.0 | 0.00 | 0.00 | 0.00 | ||
| 20260903010529 | 59 | 160 | 1.0 | 1.0 | 0.00 | 0.00 | 0.00 | ||
| 20260903010030 | 59 | 205 | 2.0 | 2.0 | 0.00 | 0.00 | 0.00 | ||
| 20260903005033 | 59 | 203 | 2.0 | 2.0 | 0.00 | 0.00 | 0.00 | ||
| 20260903004534 | 59 | 200 | 2.0 | 2.0 | 0.00 | 0.00 | 0.00 | ||
| 20260903003534 | 58 | 201 | 2.0 | 1.0 | 0.00 | 0.00 | 0.00 | ||
| 20260903003035 | 59 | 212 | 3.0 | 3.0 | 0.00 | 0.00 | 0.00 | ||
| 20260903001536 | 59 | 219 | 3.0 | 3.0 | 0.00 | 0.00 | 0.00 | ||
| 20260903000040 | 59 | 221 | 2.0 | 3.0 | 0.00 | 0.00 | 0.00 | ||
| 20260902235542 | 59 | 198 | 2.0 | 2.0 | 0.00 | 0.00 | 0.00 | ||
| 20260902235040 | 60 | 218 | 2.0 | 3.0 | 0.00 | 0.00 | 0.00 | ||
| 20260902234542 | 60 | 195 | 2.0 | 2.0 | 0.00 | 0.00 | 0.00 | ||
| 20260902234043 | 61 | 177 | 2.0 | 2.0 | 0.00 | 0.00 | 0.00 | ||
| 20260902233545 | 61 | 191 | 2.0 | 1.0 | 0.00 | 0.00 | 0.00 | ||
| 20260902233046 | 62 | 197 | 1.0 | 2.0 | 0.00 | 0.00 | 0.00 | ||
| 20260902232545 | 62 | 201 | 1.0 | 2.0 | 0.00 | 0.00 | 0.00 | ||
| 20260902232046 | 61 | 224 | 1.0 | 1.0 | 0.00 | 0.00 | 0.00 | ||
| 20260902231547 | 62 | 229 | 3.0 | 2.0 | 0.00 | 0.00 | 0.00 | ||
| 20260902225051 | 62 | 195 | 3.0 | 2.0 | 0.00 | 0.00 | 0.00 | ||
| 20260902224553 | 62 | 239 | 2.0 | 2.0 | 0.00 | 0.00 | 0.00 | ||
| 20260902224054 | 62 | 233 | 2.0 | 3.0 | 0.00 | 0.00 | 0.00 | ||
| 20260902223054 | 63 | 225 | 2.0 | 2.0 | 0.00 | 0.00 | 0.00 | ||
| 20260902222555 | 63 | 238 | 1.0 | 1.0 | 0.00 | 0.00 | 0.00 | ||
| 20260902222057 | 63 | 252 | 2.0 | 1.0 | 0.00 | 0.00 | 0.00 | ||
| 20260902221558 | 64 | 257 | 2.0 | 2.0 | 0.00 | 0.00 | 0.00 | ||
| 20260902221056 | 63 | 222 | 2.0 | 2.0 | 0.00 | 0.00 | 0.00 | ||
| 20260902220558 | 63 | 236 | 2.0 | 2.0 | 0.00 | 0.00 | 0.00 | ||
| 20260902215601 | 65 | 173 | 1.0 | 1.0 | 0.00 | 0.00 | 0.00 | ||
| 20260902215102 | 65 | 115 | 0.0 | 1.0 | 0.00 | 0.00 | 0.00 | ||
| 20260902214600 | 64 | 195 | 1.0 | 1.0 | 0.00 | 0.00 | 0.00 | ||
| 20260902214101 | 64 | 200 | 2.0 | 2.0 | 0.00 | 0.00 | 0.00 | ||
| 20260902213104 | 64 | 200 | 0.0 | 0.0 | 0.00 | 0.00 | 0.00 | ||
| 20260902212605 | 65 | 200 | 0.0 | 0.0 | 0.00 | 0.00 | 0.00 | ||
| 20260902212103 | 65 | 200 | 0.0 | 0.0 | 0.00 | 0.00 | 0.00 | ||
| 20260902211605 | 65 | 200 | 0.0 | 0.0 | 0.00 | 0.00 | 0.00 | ||
| 20260902211106 | 65 | 200 | 0.0 | 0.0 | 0.00 | 0.00 | 0.00 | ||
| 20260902210607 | 65 | 200 | 0.0 | 0.0 | 0.00 | 0.00 | 0.00 | ||
| 20260902210109 | 64 | 197 | 2.0 | 1.0 | 0.00 | 0.00 | 0.00 | ||
| 20260902205606 | 64 | 217 | 0.0 | 2.0 | 0.00 | 0.00 | 0.00 | ||
| 20260902205107 | 65 | 163 | 0.0 | 0.0 | 0.00 | 0.00 | 0.00 | ||
| 20260902204609 | 66 | 146 | 0.0 | 0.0 | 0.00 | 0.00 | 0.00 | ||
| 20260902203611 | 63 | 219 | 2.0 | 3.0 | 0.00 | 0.00 | 0.00 | ||
| 20260902203109 | 64 | 236 | 2.0 | 1.0 | 0.00 | 0.00 | 0.00 | ||
| 20260902202112 | 66 | 277 | 0.0 | 0.0 | 0.00 | 0.00 | 0.00 | ||
| 20260902201613 | 67 | 277 | 0.0 | 0.0 | 0.00 | 0.00 | 0.00 | ||
| 20260902201114 | 67 | 277 | 0.0 | 0.0 | 0.00 | 0.00 | 0.00 | ||
| 20260902200613 | 67 | 277 | 0.0 | 0.0 | 0.00 | 0.00 | 0.00 | ||
| 20260902200114 | 67 | 277 | 0.0 | 0.0 | 0.00 | 0.00 | 0.00 | ||
| 20260902195615 | 67 | 277 | 0.0 | 0.0 | 0.00 | 0.00 | 0.00 | ||
| 20260902195116 | 67 | 277 | 0.0 | 0.0 | 0.00 | 0.00 | 0.00 | ||
| 20260902194618 | 67 | 277 | 0.0 | 0.0 | 0.00 | 0.00 | 0.00 | ||
| 20260902194115 | 65 | 250 | 1.0 | 1.0 | 0.00 | 0.00 | 0.00 | ||
| 20260902193616 | 66 | 285 | 2.0 | 1.0 | 0.00 | 0.00 | 0.00 | ||
| 20260902192619 | 66 | 288 | 3.0 | 3.0 | 0.00 | 0.00 | 0.00 | ||
| 20260902192120 | 65 | 280 | 3.0 | 3.0 | 0.00 | 0.00 | 0.00 | ||
| 20260902191618 | 65 | 288 | 3.0 | 3.0 | 0.00 | 0.00 | 0.00 | ||
| 20260902191119 | 66 | 291 | 2.0 | 2.0 | 0.00 | 0.00 | 0.00 | ||
| 20260902190620 | 65 | 290 | 2.0 | 2.0 | 0.00 | 0.00 | 0.00 | ||
| 20260902190122 | 66 | 290 | 3.0 | 3.0 | 0.00 | 0.00 | 0.00 | ||
| 20260902185623 | 66 | 295 | 2.0 | 3.0 | 0.00 | 0.00 | 0.00 | ||
| 20260902185121 | 66 | 288 | 2.0 | 2.0 | 0.00 | 0.00 | 0.00 | ||
| 20260902184622 | 67 | 273 | 3.0 | 3.0 | 0.00 | 0.00 | 0.00 | ||
| 20260902184123 | 67 | 262 | 2.0 | 2.0 | 0.00 | 0.00 | 0.00 | ||
| 20260902183624 | 66 | 290 | 2.0 | 2.0 | 0.00 | 0.00 | 0.00 | ||
| 20260902182126 | 67 | 290 | 3.0 | 3.0 | 0.00 | 0.00 | 0.00 | ||
| 20260902181627 | 67 | 290 | 2.0 | 3.0 | 0.00 | 0.00 | 0.00 | ||
| 20260902181128 | 68 | 305 | 3.0 | 2.0 | 0.00 | 0.00 | 0.00 | ||
| 20260902180128 | 69 | 329 | 3.0 | 4.0 | 0.00 | 0.00 | 0.00 | ||
| 20260902175629 | 69 | 318 | 4.0 | 4.0 | 0.00 | 0.00 | 0.00 | ||
| 20260902175131 | 68 | 332 | 5.0 | 4.0 | 0.00 | 0.00 | 0.00 | ||
| 20260902174632 | 70 | 318 | 6.0 | 7.0 | 0.00 | 0.00 | 0.00 | ||
| 20260902174133 | 71 | 312 | 4.0 | 4.0 | 0.00 | 0.00 | 0.00 | ||
| 20260902173631 | 71 | 307 | 7.0 | 7.0 | 0.00 | 0.00 | 0.00 | ||
| 20260902173132 | 70 | 311 | 3.0 | 6.0 | 0.00 | 0.00 | 0.00 | ||
| 20260902172633 | 71 | 321 | 6.0 | 4.0 | 0.00 | 0.00 | 0.00 | ||
| 20260902171635 | 72 | 323 | 5.0 | 7.0 | 0.00 | 0.00 | 0.00 | ||
| 20260902171133 | 72 | 297 | 4.0 | 6.0 | 0.00 | 0.00 | 0.00 | ||
| 20260902170634 | 73 | 297 | 7.0 | 8.0 | 0.00 | 0.00 | 0.00 | ||
| 20260902170135 | 73 | 301 | 5.0 | 6.0 | 0.00 | 0.00 | 0.00 | ||
| 20260902165637 | 73 | 311 | 6.0 | 7.0 | 0.00 | 0.00 | 0.00 | ||
| 20260902164636 | 73 | 278 | 4.0 | 6.0 | 0.00 | 0.00 | 0.00 | ||
| 20260902164137 | 73 | 246 | 8.0 | 6.0 | 0.00 | 0.00 | 0.00 | ||
| 20260902163639 | 74 | 297 | 6.0 | 6.0 | 0.00 | 0.00 | 0.00 | ||
| 20260902163140 | 73 | 259 | 8.0 | 7.0 | 0.00 | 0.00 | 0.00 | ||
| 20260902162139 | 74 | 280 | 10.0 | 9.0 | 0.00 | 0.00 | 0.00 | ||
| 20260902161641 | 74 | 260 | 8.0 | 7.0 | 0.00 | 0.00 | 0.00 | ||
| 20260902161142 | 74 | 271 | 8.0 | 8.0 | 0.00 | 0.00 | 0.00 | ||
| 20260902160643 | 74 | 260 | 7.0 | 9.0 | 0.00 | 0.00 | 0.00 | ||
| 20260902155643 | 75 | 318 | 5.0 | 4.0 | 0.00 | 0.00 | 0.00 | ||
| 20260902155144 | 75 | 277 | 9.0 | 7.0 | 0.00 | 0.00 | 0.00 | ||
| 20260902154645 | 75 | 307 | 10.0 | 8.0 | 0.00 | 0.00 | 0.00 | ||
| 20260902154146 | 75 | 257 | 9.0 | 9.0 | 0.00 | 0.00 | 0.00 | ||
| 20260902153145 | 77 | 239 | 8.0 | 12.0 | 0.00 | 0.00 | 0.00 | ||
| 20260902151648 | 77 | 218 | 5.0 | 3.0 | 0.00 | 0.00 | 0.00 | ||
| 20260902150646 | 76 | 240 | 2.0 | 2.0 | 0.00 | 0.00 | 0.00 | ||
| 20260902150147 | 77 | 253 | 3.0 | 4.0 | 0.00 | 0.00 | 0.00 | ||
| 20260902145648 | 78 | 264 | 2.0 | 5.0 | 0.00 | 0.00 | 0.00 | ||
| 20260902143650 | 76 | 297 | 6.0 | 4.0 | 0.00 | 0.00 | 0.00 | ||
| 20260902141650 | 78 | 212 | 7.0 | 7.0 | 0.00 | 0.00 | 0.00 | ||
| 20260902135653 | 76 | 242 | 6.0 | 5.0 | 0.00 | 0.00 | 0.00 | ||
| 20260902134652 | 77 | 300 | 6.0 | 4.0 | 0.00 | 0.00 | 0.00 | ||
| 20260902133653 | 77 | 257 | 6.0 | 3.0 | 0.00 | 0.00 | 0.00 | ||
| 20260902133154 | 77 | 255 | 4.0 | 7.0 | 0.00 | 0.00 | 0.00 | ||
| 20260902132154 | 81 | 152 | 5.0 | 3.0 | 0.00 | 0.00 | 0.00 | ||
| 20260902131654 | 79 | 153 | 5.0 | 7.0 | 0.00 | 0.00 | 0.00 | ||
| 20260902130656 | 79 | 242 | 6.0 | 3.0 | 0.00 | 0.00 | 0.00 | ||
| 20260902125153 | 78 | 243 | 4.0 | 9.0 | 0.00 | 0.00 | 0.00 | ||
| 20260902124654 | 75 | 203 | 7.0 | 7.0 | 0.00 | 0.00 | 0.00 | ||
| 20260902123652 | 76 | 269 | 7.0 | 8.0 | 0.00 | 0.00 | 0.00 | ||
| 20260902122654 | 75 | 229 | 4.0 | 8.0 | 0.00 | 0.00 | 0.00 | ||
| 20260902122156 | 75 | 217 | 4.0 | 5.0 | 0.00 | 0.00 | 0.00 |